Weather History for KMHT - February, 2013

Change the Weather History Date:

Wednesday, February 20, 2013

  Actual Average Record
Temperature  
Mean Temperature 32 °F -  
Max Temperature 37 °F 38 °F 58 °F (1949)
Min Temperature 26 °F 20 °F -15 °F (1993)
Degree Days  
Heating Degree Days 33    
Cooling Degree Days 0    
Moisture  
Dew Point 19 °F    
Average Humidity 61    
Maximum Humidity 100    
Minimum Humidity 40    
Precipitation  
Precipitation 0.00 in 0.11 in 1.00 in (1963)
Month to date precipitation 1.88  
Year to date precipitation 4.90  
Snow  
Snow 0.00 in - - ()
Month to date snowfall  
Since 1 July snowfall  
Snow Depth 2.00 in    
Sea Level Pressure  
Sea Level Pressure 29.64 in    
Wind  
Wind Speed 8 mph (West)    
Max Wind Speed 16 mph    
Max Gust Speed 33 mph    
Visibility 9 miles    
Events Fog , Rain    
T = Trace of Precipitation, MM = Missing Value Source: NWS Daily Summary

Daily Weather History Graph

Daily Weather History Graph

Search for Another Location

Airport or City:

Trip Planner

Search our weather history database for the weather conditions in past years. The results will help you decide how hot, cold, wet, or windy it might be!

Date:

Astronomy

Feb. 20, 2013 Rise Set
Actual Time 6:35 AM EST 5:23 PM EST
Civil Twilight 6:06 AM EST 5:52 PM EST
Nautical Twilight 5:33 AM EST 6:25 PM EST
Astronomical Twilight 5:00 AM EST 6:58 PM EST
Moon 12:38 PM EST (2/20) 2:57 AM EST (2/20)
Length of Visible Light 11h 46m
Length of Day
10h 48m
Waxing Gibbous, 76% of the Moon is Illuminated
Feb 20
Waxing Gibbous
Feb 25
Full
Mar 4
Last Quarter
Mar 11
New
Mar 19
First Quarter

Hourly Weather History & Observations

Time (EST) Temp. Windchill Dew Point Humidity Pressure Visibility Wind Dir Wind Speed Gust Speed Precip Events Conditions
12:18 AM 37.4 °F - 35.6 °F 93% 29.54 in 0.1 mi Calm Calm - N/A Fog Fog
12:53 AM 37.0 °F 32.4 °F 36.0 °F 96% 29.58 in 0.1 mi SE 5.8 mph - 0.00 in Fog , Rain Light Rain
1:09 AM 37.4 °F 33.8 °F 35.6 °F 93% 29.52 in 2.0 mi South 4.6 mph - 0.00 in   Overcast
1:53 AM 35.1 °F 32.2 °F 35.1 °F 100% 29.55 in 3.0 mi SE 3.5 mph - 0.00 in   Overcast
2:53 AM 37.0 °F 33.3 °F 34.0 °F 89% 29.56 in 10.0 mi SSW 4.6 mph - N/A   Overcast
3:53 AM 36.0 °F 29.6 °F 32.0 °F 86% 29.56 in 10.0 mi WNW 8.1 mph 16.1 mph N/A   Overcast
4:53 AM 35.1 °F 27.4 °F 27.0 °F 72% 29.59 in 10.0 mi West 10.4 mph 17.3 mph N/A   Overcast
5:53 AM 34.0 °F 25.5 °F 24.1 °F 67% 29.60 in 10.0 mi WNW 11.5 mph 16.1 mph N/A   Mostly Cloudy
6:14 AM 33.8 °F 25.3 °F 23.0 °F 65% 29.55 in 10.0 mi West 11.5 mph 16.1 mph N/A   Mostly Cloudy
6:53 AM 33.1 °F 24.9 °F 21.0 °F 61% 29.63 in 10.0 mi WNW 10.4 mph - N/A   Mostly Cloudy
7:06 AM 32.0 °F 22.5 °F 19.4 °F 60% 29.59 in 10.0 mi West 12.7 mph 19.6 mph N/A   Mostly Cloudy
7:53 AM 32.0 °F 23.6 °F 17.6 °F 55% 29.59 in 10.0 mi West 10.4 mph 21.9 mph N/A   Partly Cloudy
8:53 AM 32.0 °F 23.0 °F 17.1 °F 54% 29.65 in 10.0 mi West 11.5 mph 19.6 mph N/A   Mostly Cloudy
9:53 AM 32.0 °F 21.2 °F 16.0 °F 52% 29.66 in 10.0 mi West 16.1 mph 27.6 mph N/A   Mostly Cloudy
10:53 AM 32.0 °F 22.5 °F 15.1 °F 50% 29.67 in 10.0 mi WSW 12.7 mph 19.6 mph N/A   Overcast
11:53 AM 32.0 °F 23.6 °F 14.0 °F 48% 29.66 in 10.0 mi WNW 10.4 mph - N/A   Overcast
12:53 PM 32.0 °F 22.5 °F 12.0 °F 44% 29.65 in 10.0 mi West 12.7 mph 23.0 mph N/A   Mostly Cloudy
1:53 PM 32.0 °F 23.0 °F 12.0 °F 44% 29.64 in 10.0 mi West 11.5 mph 21.9 mph N/A   Mostly Cloudy
2:53 PM 32.0 °F 22.5 °F 10.9 °F 42% 29.65 in 10.0 mi WNW 12.7 mph 24.2 mph N/A   Mostly Cloudy
3:53 PM 32.0 °F 22.1 °F 10.0 °F 40% 29.67 in 10.0 mi West 13.8 mph 24.2 mph N/A   Mostly Cloudy
4:53 PM 30.9 °F 20.2 °F 10.9 °F 43% 29.68 in 10.0 mi West 15.0 mph 21.9 mph N/A   Mostly Cloudy
5:53 PM 28.9 °F 17.7 °F 10.0 °F 45% 29.71 in 10.0 mi WNW 15.0 mph 33.4 mph N/A   Mostly Cloudy
6:53 PM 28.0 °F 18.6 °F 10.9 °F 49% 29.73 in 10.0 mi West 10.4 mph 24.2 mph N/A   Mostly Cloudy
7:53 PM 28.0 °F 17.0 °F 12.0 °F 51% 29.73 in 10.0 mi West 13.8 mph 23.0 mph N/A   Partly Cloudy
8:53 PM 27.0 °F 18.7 °F 10.9 °F 51% 29.75 in 10.0 mi West 8.1 mph 17.3 mph N/A   Clear
9:53 PM 27.0 °F 18.0 °F 10.9 °F 51% 29.76 in 10.0 mi West 9.2 mph 17.3 mph N/A   Clear
10:53 PM 27.0 °F 18.0 °F 12.0 °F 53% 29.78 in 10.0 mi West 9.2 mph 17.3 mph N/A   Clear
11:53 PM 26.1 °F 17.6 °F 12.0 °F 55% 29.78 in 10.0 mi West 8.1 mph 18.4 mph N/A   Clear